| time (UTC) | temp F | wind direction | speed knots | gust knots | rain 1hr in | rain 24hr in | rain mn in | humidity % | barometer mb |
| 20260505070347 | 62 | 233 | 0.9 | 0.9 | 0.00 | 0.00 | 0.00 | 68 | 1014.1 |
| 20260505065842 | 62 | 262 | 1.7 | 1.7 | 0.00 | 0.00 | 0.00 | 67 | 1014.1 |
| 20260505065340 | 61 | 184 | 0.0 | 5.2 | 0.00 | 0.00 | 0.00 | 67 | 1014.1 |
| 20260505064836 | 62 | 266 | 0.9 | 1.7 | 0.00 | 0.00 | 0.00 | 67 | 1014.0 |
| 20260505064334 | 62 | 284 | 0.0 | 2.6 | 0.00 | 0.00 | 0.00 | 66 | 1014.1 |
| 20260505063832 | 62 | 256 | 0.0 | 3.5 | 0.00 | 0.00 | 0.00 | 67 | 1014.0 |
| 20260505063327 | 61 | 26 | 0.9 | 0.9 | 0.00 | 0.00 | 0.00 | 68 | 1014.2 |
| 20260505062824 | 61 | 160 | 1.7 | 3.5 | 0.00 | 0.00 | 0.00 | 68 | 1014.1 |
| 20260505062322 | 61 | 221 | 0.0 | 0.9 | 0.00 | 0.00 | 0.00 | 69 | 1014.3 |
| 20260505061818 | 60 | 224 | 0.0 | 0.0 | 0.00 | 0.00 | 0.00 | 70 | 1014.3 |
| 20260505061316 | 60 | 232 | 0.0 | 0.0 | 0.00 | 0.00 | 0.00 | 70 | 1014.1 |
| 20260505060814 | 60 | 357 | 0.0 | 0.0 | 0.00 | 0.00 | 0.00 | 71 | 1014.1 |
| 20260505060310 | 60 | 270 | 0.0 | 0.0 | 0.00 | 0.00 | 0.00 | 71 | 1014.1 |
| 20260505055806 | 60 | 274 | 0.0 | 0.0 | 0.00 | 0.00 | 0.00 | 72 | 1014.0 |
| 20260505055303 | 59 | 271 | 0.0 | 0.0 | 0.00 | 0.00 | 0.00 | 73 | 1014.2 |
| 20260505054800 | 59 | 286 | 0.0 | 0.0 | 0.00 | 0.00 | 0.00 | 74 | 1014.1 |
| 20260505054257 | 59 | 268 | 0.0 | 0.0 | 0.00 | 0.00 | 0.00 | 75 | 1014.1 |
| 20260505053755 | 59 | 271 | 0.0 | 0.0 | 0.00 | 0.00 | 0.00 | 75 | 1014.0 |
| 20260505053252 | 59 | 257 | 0.0 | 0.0 | 0.00 | 0.00 | 0.00 | 75 | 1014.1 |
| 20260505052749 | 59 | 257 | 0.0 | 0.0 | 0.00 | 0.00 | 0.00 | 75 | 1014.0 |
| 20260505052246 | 59 | 257 | 0.0 | 0.0 | 0.00 | 0.00 | 0.00 | 75 | 1014.0 |
| 20260505051743 | 59 | 257 | 0.0 | 0.0 | 0.00 | 0.00 | 0.00 | 74 | 1014.1 |
| 20260505051241 | 59 | 257 | 0.0 | 0.0 | 0.00 | 0.00 | 0.00 | 72 | 1014.0 |
| 20260505050738 | 59 | 257 | 0.0 | 0.0 | 0.00 | 0.00 | 0.00 | 71 | 1013.9 |
| 20260505050236 | 60 | 257 | 0.0 | 0.0 | 0.00 | 0.00 | 0.00 | 71 | 1014.0 |
| 20260505041700 | 61 | 241 | 0.0 | 0.0 | 0.00 | 0.00 | 0.00 | 66 | 1014.1 |
| 20260505041158 | 61 | 300 | 0.0 | 0.0 | 0.00 | 0.00 | 0.00 | 66 | 1014.2 |
| 20260505040654 | 61 | 259 | 0.0 | 0.0 | 0.00 | 0.00 | 0.00 | 65 | 1014.1 |
| 20260505040151 | 61 | 247 | 0.0 | 0.0 | 0.00 | 0.00 | 0.00 | 65 | 1014.1 |
| 20260505035647 | 61 | 253 | 0.0 | 0.0 | 0.00 | 0.00 | 0.00 | 65 | 1013.9 |
| 20260505035139 | 61 | 253 | 0.0 | 0.0 | 0.00 | 0.00 | 0.00 | 63 | 1014.0 |
| 20260505034635 | 62 | 246 | 0.0 | 0.0 | 0.00 | 0.00 | 0.00 | 63 | 1013.8 |
| 20260505034133 | 62 | 241 | 0.0 | 0.0 | 0.00 | 0.00 | 0.00 | 63 | 1013.9 |
| 20260505033628 | 62 | 241 | 0.0 | 0.0 | 0.00 | 0.00 | 0.00 | 61 | 1013.8 |
| 20260505033127 | 62 | 241 | 0.0 | 0.0 | 0.00 | 0.00 | 0.00 | 61 | 1013.7 |
| 20260505032625 | 62 | 253 | 0.0 | 0.0 | 0.00 | 0.00 | 0.00 | 61 | 1014.0 |
| 20260505032121 | 63 | 253 | 0.0 | 0.0 | 0.00 | 0.00 | 0.00 | 61 | 1013.8 |
| 20260505031619 | 63 | 253 | 0.0 | 0.0 | 0.00 | 0.00 | 0.00 | 60 | 1013.8 |
| 20260505031114 | 63 | 255 | 0.0 | 0.0 | 0.00 | 0.00 | 0.00 | 59 | 1013.7 |
| 20260505030612 | 64 | 240 | 0.0 | 0.0 | 0.00 | 0.00 | 0.00 | 59 | 1013.9 |
| 20260505030107 | 64 | 240 | 0.0 | 0.0 | 0.00 | 0.00 | 0.00 | 58 | 1013.9 |
| 20260505025603 | 64 | 265 | 0.0 | 0.0 | 0.00 | 0.00 | 0.00 | 58 | 1013.8 |
| 20260505025102 | 64 | 253 | 0.0 | 0.0 | 0.00 | 0.00 | 0.00 | 58 | 1013.7 |
| 20260505024559 | 64 | 240 | 0.0 | 0.0 | 0.00 | 0.00 | 0.00 | 58 | 1013.9 |
| 20260505024056 | 64 | 228 | 0.0 | 0.0 | 0.00 | 0.00 | 0.00 | 59 | 1013.9 |
| 20260505023554 | 64 | 258 | 0.0 | 0.0 | 0.00 | 0.00 | 0.00 | 57 | 1013.8 |
| 20260505023051 | 64 | 247 | 0.0 | 0.0 | 0.00 | 0.00 | 0.00 | 57 | 1013.6 |
| 20260505022548 | 64 | 265 | 0.0 | 0.0 | 0.00 | 0.00 | 0.00 | 55 | 1013.8 |
| 20260505022045 | 64 | 262 | 0.0 | 0.0 | 0.00 | 0.00 | 0.00 | 55 | 1013.9 |
| 20260505021542 | 65 | 250 | 0.0 | 0.0 | 0.00 | 0.00 | 0.00 | 54 | 1013.8 |
| 20260505021038 | 65 | 257 | 0.0 | 0.0 | 0.00 | 0.00 | 0.00 | 53 | 1013.8 |
| 20260505020533 | 66 | 251 | 0.0 | 0.0 | 0.00 | 0.00 | 0.00 | 54 | 1013.8 |
| 20260505020030 | 66 | 297 | 0.0 | 0.9 | 0.00 | 0.00 | 0.00 | 52 | 1013.6 |
| 20260505015527 | 65 | 263 | 0.0 | 0.0 | 0.00 | 0.00 | 0.00 | 53 | 1013.7 |
| 20260505015024 | 65 | 256 | 0.0 | 0.0 | 0.00 | 0.00 | 0.00 | 53 | 1013.7 |
| 20260505014521 | 66 | 224 | 0.0 | 0.0 | 0.00 | 0.00 | 0.00 | 53 | 1013.7 |
| 20260505014018 | 66 | 251 | 0.0 | 0.0 | 0.00 | 0.00 | 0.00 | 53 | 1013.6 |
| 20260505013515 | 66 | 233 | 0.0 | 0.0 | 0.00 | 0.00 | 0.00 | 52 | 1013.5 |
| 20260505013012 | 67 | 239 | 0.0 | 0.9 | 0.00 | 0.00 | 0.00 | 50 | 1013.5 |
| 20260505012510 | 67 | 250 | 0.0 | 0.0 | 0.00 | 0.00 | 0.00 | 49 | 1013.5 |
| 20260505012007 | 67 | 278 | 0.0 | 0.0 | 0.00 | 0.00 | 0.00 | 50 | 1013.4 |
| 20260505011503 | 67 | 356 | 0.0 | 1.7 | 0.00 | 0.00 | 0.00 | 52 | 1013.3 |
| 20260505011000 | 67 | 252 | 0.0 | 0.0 | 0.00 | 0.00 | 0.00 | 50 | 1013.3 |
| 20260505010455 | 67 | 254 | 0.0 | 0.0 | 0.00 | 0.00 | 0.00 | 50 | 1013.3 |
| 20260505005951 | 68 | 266 | 0.0 | 0.0 | 0.00 | 0.00 | 0.00 | 49 | 1013.2 |
| 20260505005448 | 67 | 279 | 0.0 | 0.9 | 0.00 | 0.00 | 0.00 | 50 | 1013.2 |
| 20260505004946 | 68 | 263 | 0.0 | 0.0 | 0.00 | 0.00 | 0.00 | 50 | 1013.3 |
| 20260505004443 | 68 | 252 | 0.0 | 0.9 | 0.00 | 0.00 | 0.00 | 50 | 1013.2 |
| 20260505004018 | 67 | 0.0 | 0.0 | 0.00 | 0.00 | 0.00 | 50 | 1017.3 | |
| 20260505003940 | 67 | 255 | 0.0 | 0.0 | 0.00 | 0.00 | 0.00 | 51 | 1013.2 |
| 20260505003437 | 68 | 241 | 0.0 | 0.0 | 0.00 | 0.00 | 0.00 | 50 | 1013.1 |
| 20260505003051 | 68 | 0.0 | 0.0 | 0.00 | 0.00 | 0.00 | 49 | 1017.3 | |
| 20260505002933 | 68 | 254 | 0.0 | 0.0 | 0.00 | 0.00 | 0.00 | 49 | 1013.2 |
| 20260505002429 | 68 | 290 | 0.0 | 0.0 | 0.00 | 0.00 | 0.00 | 49 | 1013.0 |
| 20260505002044 | 68 | 212 | 0.0 | 0.9 | 0.00 | 0.00 | 0.00 | 51 | 1017.2 |
| 20260505001928 | 68 | 249 | 0.0 | 0.0 | 0.00 | 0.00 | 0.00 | 50 | 1013.1 |
| 20260505001425 | 68 | 246 | 0.0 | 0.9 | 0.00 | 0.00 | 0.00 | 51 | 1013.0 |
| 20260505001040 | 69 | 0.0 | 0.0 | 0.00 | 0.00 | 0.00 | 49 | 1017.2 | |
| 20260505000922 | 69 | 239 | 0.0 | 0.0 | 0.00 | 0.00 | 0.00 | 49 | 1013.0 |
| 20260505000420 | 69 | 221 | 0.0 | 0.0 | 0.00 | 0.00 | 0.00 | 49 | 1013.1 |
| 20260505000037 | 69 | 0.0 | 0.0 | 0.00 | 0.00 | 0.00 | 48 | 1017.2 | |
| 20260504235916 | 69 | 250 | 0.0 | 0.0 | 0.00 | 0.00 | 0.00 | 49 | 1013.0 |
| 20260504235414 | 69 | 248 | 0.0 | 0.0 | 0.00 | 0.00 | 0.00 | 48 | 1013.0 |
| 20260504235031 | 70 | 0.0 | 0.0 | 0.00 | 0.00 | 0.00 | 47 | 1017.1 | |
| 20260504234910 | 69 | 247 | 0.0 | 0.0 | 0.00 | 0.00 | 0.00 | 48 | 1012.9 |
| 20260504234408 | 70 | 253 | 0.0 | 0.0 | 0.00 | 0.00 | 0.00 | 46 | 1012.8 |
| 20260504234028 | 71 | 262 | 0.0 | 1.7 | 0.00 | 0.00 | 0.00 | 45 | 1017.0 |
| 20260504233904 | 71 | 246 | 0.0 | 0.9 | 0.00 | 0.00 | 0.00 | 46 | 1012.9 |
| 20260504233359 | 71 | 325 | 0.0 | 0.0 | 0.00 | 0.00 | 0.00 | 45 | 1012.9 |
| 20260504233021 | 72 | 265 | 1.7 | 2.6 | 0.00 | 0.00 | 0.00 | 44 | 1016.9 |
| 20260504232856 | 72 | 269 | 1.7 | 2.6 | 0.00 | 0.00 | 0.00 | 44 | 1012.8 |
| 20260504232354 | 72 | 305 | 0.0 | 0.0 | 0.00 | 0.00 | 0.00 | 43 | 1012.8 |
| 20260504232055 | 73 | 273 | 0.9 | 1.7 | 0.00 | 0.00 | 0.00 | 43 | 1016.9 |
| 20260504231850 | 73 | 228 | 0.0 | 0.0 | 0.00 | 0.00 | 0.00 | 43 | 1012.7 |
| 20260504231347 | 73 | 349 | 1.7 | 2.6 | 0.00 | 0.00 | 0.00 | 42 | 1012.6 |
| 20260504231049 | 73 | 205 | 0.0 | 0.9 | 0.00 | 0.00 | 0.00 | 41 | 1016.9 |
| 20260504230843 | 73 | 230 | 0.0 | 0.9 | 0.00 | 0.00 | 0.00 | 41 | 1012.6 |
| 20260504230341 | 74 | 257 | 1.7 | 2.6 | 0.00 | 0.00 | 0.00 | 41 | 1012.7 |
| 20260504230042 | 74 | 261 | 2.6 | 3.5 | 0.00 | 0.00 | 0.00 | 40 | 1016.9 |
| 20260504225839 | 74 | 253 | 1.7 | 6.1 | 0.00 | 0.00 | 0.00 | 40 | 1012.8 |
| 20260504225335 | 74 | 249 | 1.7 | 3.5 | 0.00 | 0.00 | 0.00 | 41 | 1012.7 |
| 20260504225037 | 74 | 269 | 1.7 | 5.2 | 0.00 | 0.00 | 0.00 | 40 | 1016.9 |
| 20260504224833 | 74 | 192 | 1.7 | 3.5 | 0.00 | 0.00 | 0.00 | 40 | 1012.7 |
| 20260504224330 | 74 | 220 | 2.6 | 5.2 | 0.00 | 0.00 | 0.00 | 40 | 1012.7 |
| 20260504224033 | 74 | 267 | 1.7 | 3.5 | 0.00 | 0.00 | 0.00 | 39 | 1016.9 |
| 20260504223826 | 74 | 234 | 0.9 | 1.7 | 0.00 | 0.00 | 0.00 | 40 | 1012.7 |
| 20260504223322 | 75 | 264 | 0.0 | 1.7 | 0.00 | 0.00 | 0.00 | 39 | 1012.7 |
| 20260504223029 | 75 | 273 | 2.6 | 5.2 | 0.00 | 0.00 | 0.00 | 38 | 1016.9 |
| 20260504222819 | 75 | 299 | 1.7 | 2.6 | 0.00 | 0.00 | 0.00 | 37 | 1012.7 |
| 20260504222316 | 75 | 294 | 1.7 | 7.0 | 0.00 | 0.00 | 0.00 | 37 | 1012.9 |
| 20260504222025 | 76 | 260 | 3.5 | 7.0 | 0.00 | 0.00 | 0.00 | 37 | 1017.0 |
| 20260504221814 | 76 | 298 | 1.7 | 7.0 | 0.00 | 0.00 | 0.00 | 36 | 1012.9 |
| 20260504221310 | 77 | 231 | 0.0 | 3.5 | 0.00 | 0.00 | 0.00 | 37 | 1012.9 |
| 20260504221021 | 76 | 219 | 1.7 | 2.6 | 0.00 | 0.00 | 0.00 | 36 | 1017.1 |
| 20260504220808 | 77 | 250 | 0.0 | 2.6 | 0.00 | 0.00 | 0.00 | 35 | 1012.8 |
| 20260504220304 | 75 | 278 | 3.5 | 5.2 | 0.00 | 0.00 | 0.00 | 36 | 1012.8 |
| 20260504220017 | 76 | 273 | 4.3 | 13.0 | 0.00 | 0.00 | 0.00 | 36 | 1017.0 |
| 20260504215802 | 76 | 238 | 2.6 | 5.2 | 0.00 | 0.00 | 0.00 | 37 | 1012.9 |
| 20260504215258 | 76 | 164 | 6.1 | 11.3 | 0.00 | 0.00 | 0.00 | 35 | 1012.9 |
| 20260504215055 | 76 | 246 | 3.5 | 9.6 | 0.00 | 0.00 | 0.00 | 35 | 1017.1 |
| 20260504214754 | 77 | 260 | 3.5 | 9.6 | 0.00 | 0.00 | 0.00 | 37 | 1012.9 |
| 20260504214250 | 76 | 261 | 6.1 | 7.8 | 0.00 | 0.00 | 0.00 | 35 | 1013.1 |
| 20260504214050 | 77 | 254 | 3.5 | 12.2 | 0.00 | 0.00 | 0.00 | 35 | 1017.1 |
| 20260504213747 | 77 | 261 | 1.7 | 3.5 | 0.00 | 0.00 | 0.00 | 35 | 1013.0 |
| 20260504213243 | 77 | 194 | 1.7 | 7.0 | 0.00 | 0.00 | 0.00 | 35 | 1013.0 |
| 20260504213039 | 76 | 273 | 3.5 | 9.6 | 0.00 | 0.00 | 0.00 | 35 | 1017.0 |
| 20260504212740 | 76 | 226 | 1.7 | 7.8 | 0.00 | 0.00 | 0.00 | 35 | 1012.8 |
| 20260504212237 | 76 | 261 | 2.6 | 9.6 | 0.00 | 0.00 | 0.00 | 35 | 1012.9 |
| 20260504212035 | 76 | 269 | 3.5 | 7.0 | 0.00 | 0.00 | 0.00 | 35 | 1017.0 |
| 20260504211735 | 76 | 264 | 1.7 | 3.5 | 0.00 | 0.00 | 0.00 | 36 | 1012.8 |
| 20260504211230 | 76 | 218 | 1.7 | 5.2 | 0.00 | 0.00 | 0.00 | 35 | 1013.0 |
| 20260504211042 | 77 | 251 | 1.7 | 5.2 | 0.00 | 0.00 | 0.00 | 34 | 1017.0 |
| 20260504210728 | 77 | 316 | 3.5 | 5.2 | 0.00 | 0.00 | 0.00 | 34 | 1012.8 |
| 20260504210225 | 77 | 251 | 0.9 | 2.6 | 0.00 | 0.00 | 0.00 | 35 | 1012.7 |
| 20260504210038 | 76 | 272 | 3.5 | 8.7 | 0.00 | 0.00 | 0.00 | 34 | 1017.0 |
| 20260504205722 | 76 | 218 | 1.7 | 8.7 | 0.00 | 0.00 | 0.00 | 34 | 1012.9 |
| 20260504205220 | 77 | 237 | 4.3 | 7.0 | 0.00 | 0.00 | 0.00 | 34 | 1012.8 |
| 20260504205114 | 77 | 264 | 3.5 | 7.8 | 0.00 | 0.00 | 0.00 | 34 | 1017.0 |
| 20260504204718 | 77 | 201 | 4.3 | 7.0 | 0.00 | 0.00 | 0.00 | 34 | 1012.9 |
| 20260504204216 | 77 | 180 | 1.7 | 9.6 | 0.00 | 0.00 | 0.00 | 34 | 1012.9 |
| 20260504204047 | 77 | 273 | 3.5 | 7.8 | 0.00 | 0.00 | 0.00 | 33 | 1017.1 |
| 20260504203715 | 78 | 251 | 4.3 | 7.8 | 0.00 | 0.00 | 0.00 | 33 | 1013.0 |
| 20260504203207 | 77 | 158 | 7.8 | 11.3 | 0.00 | 0.00 | 0.00 | 33 | 1012.8 |
| 20260504203036 | 78 | 262 | 3.5 | 6.1 | 0.00 | 0.00 | 0.00 | 33 | 1016.9 |
| 20260504202706 | 78 | 296 | 1.7 | 3.5 | 0.00 | 0.00 | 0.00 | 32 | 1012.8 |
| 20260504202204 | 78 | 336 | 2.6 | 7.0 | 0.00 | 0.00 | 0.00 | 33 | 1013.0 |
| 20260504202023 | 78 | 257 | 2.6 | 5.2 | 0.00 | 0.00 | 0.00 | 33 | 1017.0 |
| 20260504201701 | 78 | 239 | 1.7 | 11.3 | 0.00 | 0.00 | 0.00 | 32 | 1012.9 |
| 20260504201158 | 78 | 307 | 4.3 | 5.2 | 0.00 | 0.00 | 0.00 | 33 | 1012.8 |
| 20260504201051 | 78 | 294 | 3.5 | 8.7 | 0.00 | 0.00 | 0.00 | 32 | 1017.0 |
| 20260504200655 | 78 | 41 | 3.5 | 5.2 | 0.00 | 0.00 | 0.00 | 32 | 1012.8 |
| 20260504200151 | 78 | 325 | 5.2 | 7.0 | 0.00 | 0.00 | 0.00 | 31 | 1013.1 |
| 20260504200042 | 78 | 272 | 1.7 | 3.5 | 0.00 | 0.00 | 0.00 | 31 | 1017.2 |
| 20260504195648 | 78 | 218 | 0.0 | 5.2 | 0.00 | 0.00 | 0.00 | 30 | 1013.1 |
| 20260504195144 | 78 | 315 | 1.7 | 2.6 | 0.00 | 0.00 | 0.00 | 32 | 1013.3 |
| 20260504195051 | 78 | 228 | 1.7 | 5.2 | 0.00 | 0.00 | 0.00 | 31 | 1017.5 |
| 20260504194641 | 78 | 222 | 0.0 | 2.6 | 0.00 | 0.00 | 0.00 | 32 | 1013.4 |
| 20260504194137 | 77 | 262 | 2.6 | 13.9 | 0.00 | 0.00 | 0.00 | 33 | 1013.2 |
| 20260504194016 | 76 | 252 | 3.5 | 13.9 | 0.00 | 0.00 | 0.00 | 32 | 1017.6 |
| 20260504193633 | 76 | 82 | 0.0 | 6.1 | 0.00 | 0.00 | 0.00 | 31 | 1013.3 |
| 20260504193132 | 78 | 198 | 1.7 | 1.7 | 0.00 | 0.00 | 0.00 | 31 | 1013.5 |
| 20260504193046 | 77 | 262 | 1.7 | 6.1 | 0.00 | 0.00 | 0.00 | 31 | 1017.7 |
| 20260504192629 | 77 | 355 | 3.5 | 5.2 | 0.00 | 0.00 | 0.00 | 30 | 1013.5 |
| 20260504192127 | 76 | 263 | 2.6 | 9.6 | 0.00 | 0.00 | 0.00 | 32 | 1013.5 |
| 20260504192033 | 76 | 255 | 2.6 | 8.7 | 0.00 | 0.00 | 0.00 | 31 | 1017.8 |
| 20260504191626 | 76 | 264 | 5.2 | 9.6 | 0.00 | 0.00 | 0.00 | 31 | 1013.7 |
| 20260504191121 | 77 | 173 | 1.7 | 7.8 | 0.00 | 0.00 | 0.00 | 34 | 1013.6 |
| 20260504191023 | 77 | 309 | 2.6 | 7.8 | 0.00 | 0.00 | 0.00 | 31 | 1017.9 |
| 20260504190617 | 77 | 211 | 0.9 | 3.5 | 0.00 | 0.00 | 0.00 | 33 | 1013.7 |
| 20260504190114 | 77 | 251 | 1.7 | 3.5 | 0.00 | 0.00 | 0.00 | 31 | 1014.0 |
| 20260504190051 | 76 | 256 | 3.5 | 6.1 | 0.00 | 0.00 | 0.00 | 32 | 1018.1 |
| 20260504185611 | 77 | 259 | 3.5 | 6.1 | 0.00 | 0.00 | 0.00 | 32 | 1013.9 |
| 20260504185107 | 77 | 267 | 4.3 | 7.0 | 0.00 | 0.00 | 0.00 | 32 | 1014.0 |
| 20260504185102 | 76 | 242 | 2.6 | 7.0 | 0.00 | 0.00 | 0.00 | 32 | 1018.2 |
| 20260504184603 | 77 | 176 | 1.7 | 3.5 | 0.00 | 0.00 | 0.00 | 31 | 1013.8 |
| 20260504184058 | 75 | 228 | 2.6 | 5.2 | 0.00 | 0.00 | 0.00 | 34 | 1014.2 |
| 20260504184032 | 75 | 258 | 2.6 | 5.2 | 0.00 | 0.00 | 0.00 | 33 | 1018.3 |
| 20260504183556 | 75 | 295 | 3.5 | 6.1 | 0.00 | 0.00 | 0.00 | 31 | 1014.2 |
| 20260504183054 | 75 | 300 | 2.6 | 5.2 | 0.00 | 0.00 | 0.00 | 34 | 1014.4 |
| 20260504183021 | 75 | 280 | 4.3 | 7.8 | 0.00 | 0.00 | 0.00 | 33 | 1018.4 |
| 20260504182550 | 75 | 250 | 3.5 | 5.2 | 0.00 | 0.00 | 0.00 | 35 | 1014.4 |
| 20260504182132 | 74 | 261 | 3.5 | 8.7 | 0.00 | 0.00 | 0.00 | 34 | 1018.6 |
| 20260504182048 | 74 | 241 | 3.5 | 8.7 | 0.00 | 0.00 | 0.00 | 34 | 1014.5 |
| 20260504181545 | 75 | 284 | 4.3 | 7.0 | 0.00 | 0.00 | 0.00 | 34 | 1014.5 |
| 20260504181044 | 75 | 199 | 1.7 | 3.5 | 0.00 | 0.00 | 0.00 | 34 | 1019.0 |
| 20260504180542 | 75 | 220 | 1.7 | 2.6 | 0.00 | 0.00 | 0.00 | 35 | 1014.8 |
| 20260504180040 | 74 | 327 | 4.3 | 8.7 | 0.00 | 0.00 | 0.00 | 33 | 1014.8 |
| 20260504180035 | 74 | 260 | 3.5 | 7.0 | 0.00 | 0.00 | 0.00 | 36 | 1019.0 |
| 20260504175537 | 74 | 248 | 1.7 | 8.7 | 0.00 | 0.00 | 0.00 | 37 | 1014.8 |
| 20260504175034 | 75 | 123 | 1.7 | 3.5 | 0.00 | 0.00 | 0.00 | 33 | 1014.9 |
| 20260504175031 | 74 | 251 | 1.7 | 3.5 | 0.00 | 0.00 | 0.00 | 36 | 1019.0 |
| 20260504174532 | 73 | 264 | 5.2 | 7.8 | 0.00 | 0.00 | 0.00 | 36 | 1014.8 |
| 20260504174028 | 75 | 248 | 3.5 | 3.5 | 0.00 | 0.00 | 0.00 | 35 | 1015.0 |
| 20260504173525 | 74 | 258 | 2.6 | 8.7 | 0.00 | 0.00 | 0.00 | 37 | 1015.0 |
| 20260504173024 | 73 | 280 | 2.6 | 6.1 | 0.00 | 0.00 | 0.00 | 37 | 1019.3 |
| 20260504172519 | 73 | 263 | 5.2 | 6.1 | 0.00 | 0.00 | 0.00 | 36 | 1015.3 |
| 20260504172022 | 71 | 258 | 4.3 | 11.3 | 0.00 | 0.00 | 0.00 | 36 | 1019.5 |
| 20260504172015 | 71 | 266 | 2.6 | 6.1 | 0.00 | 0.00 | 0.00 | 37 | 1015.3 |
| 20260504171512 | 71 | 231 | 4.3 | 11.3 | 0.00 | 0.00 | 0.00 | 36 | 1015.5 |
| 20260504171018 | 72 | 257 | 5.2 | 13.0 | 0.00 | 0.00 | 0.00 | 37 | 1019.8 |
| 20260504171009 | 71 | 164 | 4.3 | 9.6 | 0.00 | 0.00 | 0.00 | 36 | 1015.6 |
| 20260504170505 | 73 | 247 | 0.9 | 2.6 | 0.00 | 0.00 | 0.00 | 40 | 1015.4 |
| 20260504170155 | 72 | 245 | 3.5 | 7.8 | 0.00 | 0.00 | 0.00 | 37 | 1019.7 |
| 20260504160425 | 70 | 278 | 2.6 | 6.1 | 0.00 | 0.00 | 0.00 | 39 | 1016.4 |
| 20260504151027 | 67 | 284 | 0.9 | 3.5 | 0.00 | 0.00 | 0.00 | 42 | 1020.8 |
| 20260504150849 | 67 | 289 | 0.9 | 3.5 | 0.00 | 0.00 | 0.00 | 42 | 1016.6 |
| 20260504150345 | 66 | 235 | 0.0 | 3.5 | 0.00 | 0.00 | 0.00 | 41 | 1016.6 |
| 20260504141316 | 61 | 233 | 0.0 | 1.7 | 0.00 | 0.00 | 0.00 | 52 | 1016.9 |
| 20260504141055 | 61 | 307 | 2.6 | 5.2 | 0.00 | 0.00 | 0.00 | 52 | 1021.2 |
| 20260504140812 | 61 | 93 | 3.5 | 6.1 | 0.00 | 0.00 | 0.00 | 51 | 1017.2 |
| 20260504140308 | 62 | 220 | 0.9 | 5.2 | 0.00 | 0.00 | 0.00 | 52 | 1017.2 |
| 20260504130737 | 57 | 261 | 1.7 | 5.2 | 0.00 | 0.00 | 0.00 | 59 | 1017.4 |
| 20260504130233 | 57 | 342 | 1.7 | 5.2 | 0.00 | 0.00 | 0.00 | 59 | 1017.4 |
| 20260504120156 | 52 | 294 | 0.9 | 0.9 | 0.00 | 0.00 | 0.00 | 69 | 1017.8 |
| 20260504110624 | 50 | 274 | 0.0 | 0.0 | 0.00 | 0.00 | 0.00 | 74 | 1017.9 |
| 20260504110120 | 49 | 255 | 0.0 | 0.0 | 0.00 | 0.00 | 0.00 | 75 | 1017.9 |
| 20260504100545 | 50 | 261 | 0.0 | 0.0 | 0.00 | 0.00 | 0.00 | 71 | 1017.9 |
| 20260504081939 | 50 | 259 | 0.0 | 1.7 | 0.00 | 0.00 | 0.00 | 76 | 1018.1 |
| 20260504081436 | 51 | 245 | 0.0 | 0.9 | 0.00 | 0.00 | 0.00 | 77 | 1018.1 |
| 20260504080932 | 50 | 252 | 0.0 | 0.9 | 0.00 | 0.00 | 0.00 | 78 | 1018.0 |
| 20260504080429 | 51 | 241 | 0.0 | 0.9 | 0.00 | 0.00 | 0.00 | 79 | 1018.3 |